Elmendorf AFB, AK

7:48 PM AKDT on June 25, 2017 (GMT -0800)
Elmendorf Air Force Base

Weather History for PAED - December, 2012

Change the Weather History Date:

Wednesday, December 26, 2012

  Actual Average Record
Temperature  
Mean Temperature 18 °F -  
Max Temperature 24 °F 24 °F 50 °F (1999)
Min Temperature 12 °F 10 °F -28 °F (1961)
Degree Days  
Heating Degree Days 47    
Moisture  
Dew Point 16 °F    
Average Humidity 83    
Maximum Humidity 92    
Minimum Humidity 74    
Precipitation  
Precipitation 0.00 in - - ()
Sea Level Pressure  
Sea Level Pressure 29.49 in    
Wind  
Wind Speed 4 mph (East)    
Max Wind Speed 9 mph    
Max Gust Speed -    
Visibility 10 miles    
Events      
Averages and records for this station are not official NWS values.
T = Trace of Precipitation, MM = Missing Value Source: NWS Daily Summary

Daily Weather History Graph

Daily Weather History Graph

Search for Another Location

Airport or City:

Trip Planner

Search our weather history database for the weather conditions in past years. The results will help you decide how hot, cold, wet, or windy it might be!

Date:

Astronomy

Dec. 26, 2012 Rise Set
Actual Time 10:15 AM AKST 3:44 PM AKST
Civil Twilight 9:13 AM AKST 4:47 PM AKST
Nautical Twilight 8:13 AM AKST 5:46 PM AKST
Astronomical Twilight 7:19 AM AKST 6:40 PM AKST
Moon 2:57 PM AKST 8:36 AM AKST
Length of Visible Light 7h 33m
Length of Day
5h 29m
Waxing Gibbous, 98% of the Moon is Illuminated
Dec 26
Waxing Gibbous
Dec 28
Full
Jan 4
Last Quarter
Jan 11
New
Jan 18
First Quarter

Hourly Weather History & Observations

Time (AKST) Temp. Windchill Dew Point Humidity Pressure Visibility Wind Dir Wind Speed Gust Speed Precip Events Conditions
12:08 AM 23.0 °F 13.1 °F 17.6 °F 80% 29.64 in 10.0 mi NE 9.2 mph - N/A   Mostly Cloudy
12:55 AM 23.0 °F 17.0 °F 16.5 °F 76% 29.63 in 10.0 mi ENE 4.6 mph - N/A   Mostly Cloudy
1:55 AM 23.0 °F 17.0 °F 16.7 °F 77% 29.62 in 10.0 mi ENE 4.6 mph - N/A   Mostly Cloudy
2:55 AM 22.5 °F 17.8 °F 16.7 °F 79% 29.62 in 10.0 mi NE 3.5 mph - N/A   Mostly Cloudy
3:12 AM 23.0 °F 15.8 °F 15.8 °F 74% 29.62 in 10.0 mi NE 5.8 mph - N/A   Mostly Cloudy
3:25 AM 21.2 °F 16.4 °F 15.8 °F 80% 29.61 in 10.0 mi ENE 3.5 mph - N/A   Mostly Cloudy
3:55 AM 19.9 °F 14.9 °F 15.4 °F 83% 29.61 in 10.0 mi ENE 3.5 mph - N/A   Mostly Cloudy
4:55 AM 18.9 °F 12.1 °F 13.1 °F 78% 29.59 in 10.0 mi East 4.6 mph - N/A   Scattered Clouds
5:55 AM 15.8 °F - 12.4 °F 86% 29.57 in 10.0 mi Calm Calm - N/A   Partly Cloudy
6:55 AM 12.4 °F - 9.3 °F 88% 29.56 in 10.0 mi Calm Calm - N/A   Mostly Cloudy
7:55 AM 13.1 °F 4.0 °F 9.9 °F 87% 29.54 in 10.0 mi East 5.8 mph - N/A   Clear
8:55 AM 14.2 °F 8.4 °F 11.1 °F 88% 29.52 in 10.0 mi SSW 3.5 mph - N/A   Scattered Clouds
9:55 AM 15.8 °F - 13.1 °F 89% 29.52 in 10.0 mi Calm Calm - N/A   Overcast
10:55 AM 15.4 °F - 12.7 °F 89% 29.51 in 10.0 mi Calm Calm - N/A   Clear
11:55 AM 20.3 °F 13.8 °F 18.3 °F 92% 29.50 in 8.0 mi South 4.6 mph - N/A   Scattered Clouds
12:55 PM 19.0 °F - 15.4 °F 86% 29.47 in 10.0 mi Calm Calm - N/A   Overcast
1:55 PM 20.7 °F 11.9 °F 16.9 °F 85% 29.47 in 10.0 mi South 6.9 mph - N/A   Overcast
2:55 PM 23.2 °F 18.7 °F 18.0 °F 80% 29.45 in 10.0 mi ENE 3.5 mph - N/A   Overcast
3:55 PM 21.4 °F - 17.6 °F 85% 29.43 in 10.0 mi Calm Calm - N/A   Mostly Cloudy
4:55 PM 21.6 °F - 18.0 °F 86% 29.42 in 10.0 mi Calm Calm - N/A   Partly Cloudy
5:55 PM 22.8 °F 16.7 °F 17.6 °F 80% 29.41 in 10.0 mi ENE 4.6 mph - N/A   Scattered Clouds
6:30 PM 23.0 °F 15.8 °F 17.6 °F 80% 29.40 in 10.0 mi SSE 5.8 mph - N/A   Partly Cloudy
6:39 PM 23.0 °F - 17.6 °F 80% 29.40 in 10.0 mi Calm Calm - N/A   Clear
6:55 PM 23.0 °F 17.0 °F 17.2 °F 79% 29.40 in 10.0 mi South 4.6 mph - 0.00 in   Partly Cloudy
7:35 PM 23.0 °F 17.0 °F 17.6 °F 80% 29.39 in 10.0 mi SSE 4.6 mph - N/A   Clear
7:45 PM 23.0 °F - 17.6 °F 80% 29.39 in 10.0 mi Calm Calm - N/A   Clear
7:55 PM 22.5 °F 16.3 °F 18.1 °F 83% 29.39 in 10.0 mi ESE 4.6 mph - 0.00 in   Clear
8:55 PM 24.4 °F - 18.3 °F 78% 29.38 in 10.0 mi Calm Calm - N/A   Clear
9:55 PM 22.6 °F - 18.3 °F 83% 29.38 in 10.0 mi Calm Calm - N/A   Clear
10:55 PM 21.9 °F - 18.1 °F 85% 29.38 in 10.0 mi Calm Calm - N/A   Clear
11:55 PM 21.7 °F - 18.1 °F 86% 29.36 in 10.0 mi Calm Calm - N/A   Clear